IRIDIUM 154 (43574 NORAD) Tracking and Keplerian Element Data

This shows tracking and keplerian element data for the satellite.

Feedback or suggestion? Click here.




ElementValue
Catalog43574
NameIRIDIUM 154
Epoch Orbit428
Epoch Day235.79224832
Epoch Year2018
RAAN169.5957
Inclination86.4025
Eccentricity0.0002884
Argument of Perigee108.5151
Mean Anonmoly251.6359
Mean Motion14.34578606
Decay Rate3.2E-07
L11 43574U 18061F 18235.79224832 .00000032 00000-0 41747-5 0 9998
L22 43574 86.4025 169.5957 0002884 108.5151 251.6359 14.34578606 4284

Live tracking and technical data element details for IRIDIUM 154 (NORAD 43574). IRIDIUM 154 can be tracked NOW for your location showing map with azimuth and elevation plus other details from your city location.

Track the satellite on the map from your city or location and see movement details for azimuth, elevation, latitude, longitude, range, height, and movement on the map or in text.







IsCatalogInMostPopularTable: catalog: 43574, numindb: 50
Update: records affected: 1



GetName: 43574 IRIDIUM 154

Hit Count: updated at: Tue, 20 Nov 2018 12:11:58 GMT